National Weather Service Raw Text Product

Displaying AFOS PIL: RWRWI Received: 2018-04-21 21:00 UTC


823 
ASUS43 KMKX 212059
RWRWI 

WISCONSIN REGIONAL WEATHER ROUNDUP
NATIONAL WEATHER SERVICE MILWAUKEE/SULLIVAN WI
400 PM CDT SAT APR 21 2018

NOTE: "FAIR" INDICATES FEW OR NO CLOUDS BELOW 12,000 FEET WITH NO
SIGNIFICANT WEATHER AND/OR OBSTRUCTIONS TO VISIBILITY.

WIZ001-002-006>008-014>016-023>028-212200-
NORTHWEST WISCONSIN
  
CITY           SKY/WX    TMP DP  RH WIND       PRES   REMARKS
SUPERIOR ARPT  FAIR      59  19  21 NE7       30.33F                  
ASHLAND        FAIR      58   8  13 W7        30.34F                  
HAYWARD        FAIR      55  17  22 CALM      30.34F                  
SIREN          FAIR      58  16  19 SW5       30.35F                  
CUMBERLAND     FAIR      50  16  25 CALM      30.37S                  
RICE LAKE      FAIR      54  19  25 SW5       30.37F                  
CHETEK         FAIR      55  23  28 CALM      30.36S                  
LADYSMITH      FAIR      57  18  21 CALM      30.36F                  
EAU CLAIRE     NOT AVBL                                               
MENOMONIE      FAIR      60  29  30 S7        30.35F                  
NEW RICHMOND   FAIR      56  20  24 CALM      30.36F                  
OSCEOLA        FAIR      57  24  27 E3        30.39F                  
$$
 
WIZ003>005-009-010-017-018-212200-
NORTH CENTRAL WISCONSIN
  
CITY           SKY/WX    TMP DP  RH WIND       PRES   REMARKS
MANITOWISH WTR FAIR      55   6  14 CALM      30.34F                  
ARBOR VITAE    FAIR      57  12  17 E5        30.33F                  
WOODRUFF       FAIR      57  12  17 E5        30.33F                  
RHINELANDER    FAIR      55  16  21 VRB6      30.34F                  
EAGLE RIVER    FAIR      56   4  12 CALM      30.32F                  
LAND O LAKES   FAIR      58   6  12 W5        30.33F                  
PHILLIPS       FAIR      55  14  20 W6        30.34F                  
TOMAHAWK       FAIR      55  15  20 W3        30.35F                  
MEDFORD        FAIR      52  26  36 S6        30.36F                  
MERRILL          N/A     56  27  33 SW7       30.36F                  
$$
 
WIZ029-030-035-036-043>047-212200-
CENTRAL WISCONSIN
  
CITY           SKY/WX    TMP DP  RH WIND       PRES   REMARKS
WAUSAU         FAIR      55  27  34 W8        30.34F                  
MOSINEE        MOSUNNY   55  25  30 W6        30.37F                  
MARSHFIELD     FAIR      55  27  34 NW3       30.34F                  
STEVENS POINT  FAIR      55  23  29 W7        30.36F                  
WAUPACA        FAIR      58  20  23 S3        30.37F                  
WAUTOMA        FAIR      57  27  31 SW9       30.37F                  
WISC RAPIDS    FAIR      55  27  34 S7        30.36F                  
CAMP DOUGLAS   FAIR      55  28  35 SW3       30.37F                  
$$
 
WIZ011>013-019>022-031-037>040-048>050-212200-
NORTHEAST WISCONSIN
  
CITY           SKY/WX    TMP DP  RH WIND       PRES   REMARKS
ANTIGO         FAIR      53  25  33 SW7       30.36F                  
SHAWANO        FAIR      60  20  21 S5        30.36F                  
OCONTO         FAIR      56  19  23 S8        30.37F                  
STURGEON BAY   FAIR      54  19  25 S10       30.38F                  
GREEN BAY      FAIR      51  22  31 S9        30.39F                  
MANITOWOC      FAIR      51  23  33 S9        30.40F                  
APPLETON       PTSUNNY   54  18  24 S6        30.37                   
CLINTONVILLE   FAIR      55  18  23 S7        30.36F                  
OSHKOSH        FAIR      51  31  46 S6        30.38F                  
$$
 
WIZ032>034-041-042-053>061-212200-
SOUTHWEST WISCONSIN
  
CITY           SKY/WX    TMP DP  RH WIND       PRES   REMARKS
LA CROSSE      PTSUNNY   59  30  33 CALM      30.35F                  
SPARTA         PTSUNNY   57  32  38 S5        30.38F                  
VIROQUA        CLOUDY    53  35  51 SW3       30.36F                  
BOSCOBEL       PTSUNNY   57  36  45 CALM      30.36F                  
PRAIRIE DU CHI CLOUDY    54  33  44 E5        30.37F                  
PLATTEVILLE    PTSUNNY   55  33  44 E8        30.37F                  
$$

WIZ056-057-062-063-064-067-068-212200-
SOUTH CENTRAL WISCONSIN
  
CITY           SKY/WX    TMP DP  RH WIND       PRES   REMARKS
REEDSBURG      FAIR      54  33  46 CALM      30.37F                  
BARABOO/DELLS  CLOUDY    51  29  42 W5        30.39F                  
LONE ROCK      NOT AVBL                                               
MINERAL POINT  FAIR      55  30  38 SE3       30.37F                  
MADISON        PTSUNNY   54  30  40 E6        30.37F                  
MIDDLETON      PTSUNNY   57  31  37 CALM      30.39F                  
WATERTOWN      CLOUDY    50  29  43 S3        30.41F                  
MONROE         FAIR      54  32  43 S5        30.37F                  
JANESVILLE     CLOUDY    55  32  41 E6        30.38F                  
$$
 
WIZ051-052-058>065-066-070>072-212200-
SOUTHEAST WISCONSIN
  
CITY           SKY/WX    TMP DP  RH WIND       PRES   REMARKS
MILWAUKEE      PTSUNNY   52  20  28 SE6       30.41F                  
WAUKESHA       CLOUDY    50  25  37 W7        30.41F                  
MILWAUKEE/TIMM PTSUNNY   55  12  18 W6        30.40F                  
RACINE         CLOUDY    49  17  28 E7        30.42F                  
BURLINGTON     FAIR      53  28  38 W5        30.40F                  
KENOSHA        PTSUNNY   54  25  32 E9        30.40F                  
FOND DU LAC    FAIR      49  28  44 S5        30.39F                  
SHEBOYGAN      FAIR      56  20  24 VRB3      30.38F                  
WEST BEND      PTSUNNY   54  23  30 W6        30.40F                  
JUNEAU         CLOUDY    50  34  53 CALM      30.41F                  
$$

LSZ147-162-212200-
LAKE SUPERIOR
  
STATION/POSITION TIME  TEMP    WIND        PRES    WAVE
                       AIR SEA DIR/SP/G            HT/PER
                 (UTC) (F)     (DEG/KT/KT) (MB)    (FT/S)
DEVILS ISLAND    2000   49     290/  6/  7 1028.7F
SAXON HARBOR     2030   45     350/  2/  2 1027.4F
$$
 
LMZ867-665-643>646-212200-
LAKE MICHIGAN
  
STATION/POSITION TIME  TEMP    WIND        PRES    WAVE
                       AIR SEA DIR/SP/G            HT/PER
                 (UTC) (F)     (DEG/KT/KT) (MB)    (FT/S)
NORTHPORT PIER   2040   47                 1028.1F
KEWAUNEE LAKESHO 2030   41     170/  9/ 11 1028.6F
SHEBOYGAN LAKESH 2000   43     170/ 16/ 16 1030.0F
PORT WASHINGTON  2030   47     180/  4/  6 1030.5F
MILWAUKEE LAKESH 2040   41     190/  2/  3   N/A
KENOSHA   LAKESH 2000   44                 1030.1
$$

TC  - TEMPERATURE IN CELSIUS
VSB - VISIBILITY IN STATUTE MILES
WCI - WIND CHILL INDEX
HX  - HEAT INDEX